Notices

What's New in latest Release from April 7th, 2021:

- Updated Glossary, including Speed of Maximum Gust, and Total Hourly Precipitation

- Updated national and regional climate services offices contacts and prices information

- Addition of station inventory lists for 1981-2010, 1971-2000, and 1961-1990 Normals.

If you haven't already, please take our survey and provide feedback about our website: https://eccc.sondage-survey.ca/f/LanguageSelection.aspx?s=442ca660-fcf1-47c0-95a9-59707d6fd709

Hourly Data Report for March 18, 2021

MIRAMICHI RCS
NEW BRUNSWICK
Current Station Operator: ECCC - MSC

47°00'34.000" N
65°27'54.000" W
33.00 m
8100989
71744
ACQ

Download Data

Hourly Data (March 2021)
Hourly Data Report for March 18, 2021
TIME
LST
Temp Definition
°C
Dew Point Definition
°C
Rel Hum Definition
%
Precip. Amount Definition
mm

Wind Dir Definition
10's deg

Wind Spd Definition
km/h
Visibility Definition
km
Stn Press Definition
kPa
Hmdx Definition


Wind Chill Definition


Weather Definition


00:00 1.5 -8.5 47 LegendMM 19 6   101.19     LegendNANA
01:00 0.4 -7.9 54 LegendMM 20 4   101.12     LegendNANA
02:00 0.4 -7.2 57 LegendMM 23 7   101.11     LegendNANA
03:00 0.5 -6.1 61 LegendMM 23 9   101.04     LegendNANA
04:00 0.2 -5.6 65 LegendMM 21 10   100.92     LegendNANA
05:00 0.0 -5.2 68 LegendMM 21 12   100.94   -4 LegendNANA
06:00 0.2 -3.7 75 LegendMM 21 19   100.91     LegendNANA
07:00 0.3 -2.3 83 LegendMM 22 16   100.86     LegendNANA
08:00 1.5 -0.7 85 LegendMM 22 20   100.79     LegendNANA
09:00 2.6 0.0 83 LegendMM 21 23   100.72     LegendNANA
10:00 3.3 0.3 81 LegendMM 21 21   100.65     LegendNANA
11:00 3.0 1.1 87 LegendMM 21 22   100.56     LegendNANA
12:00 3.4 1.3 86 LegendMM 22 21   100.50     LegendNANA
13:00 4.2 0.8 78 LegendMM 23 27   100.44     LegendNANA
14:00 5.2 0.1 70 LegendMM 24 26   100.40     LegendNANA
15:00 5.4 -0.4 66 LegendMM 24 23   100.41     LegendNANA
16:00 5.6 -0.2 66 LegendMM 24 19   100.38     LegendNANA
17:00 6.3 -1.0 59 LegendMM 24 18   100.35     LegendNANA
18:00 5.4 -1.3 62 LegendMM 23 16   100.37     LegendNANA
19:00 5.5 -1.8 59 LegendMM 25 17   100.44     LegendNANA
20:00 4.3 -0.3 72 LegendMM 30 18   100.52     LegendNANA
21:00 3.1 -4.6 57 LegendMM 29 14   100.59     LegendNANA
22:00 1.7 -7.6 50 LegendMM 31 17   100.68     LegendNANA
23:00 -0.8 -11.0 46 LegendMM 31 21   100.79   -6 LegendNANA

Notes on Data Quality.

Legend

  • E = Estimated
  • M = Missing
  • NA = Not Available*
  • [empty] = Indicates an unobserved value
Date modified: